Hourly Data Report for September 09, 2018

All times are specified in Local Standard Time (LST). Add 1 hour to adjust for Daylight Saving Time where and when it is observed.

BONAVISTA
NEWFOUNDLAND
Current Station Operator: ECCC - MSC

48°40'02.000" N
53°06'51.000" W
25.60 m
8400601
71178
AVA

Download Data

Hourly Data (September 2018)
Hourly Data Report for September 9, 2018
Temp Definition
°C
Dew Point Temp Definition
°C
Rel Hum Definition
%
Wind Dir Definition
10's deg

Wind Spd Definition
km/h
Visibility Definition
km
Stn Press Definition
kPa
Hmdx Definition


Wind Chill Definition


Weather Definition


TIME
00:30 11.2 5.6 68 33 24   101.08     LegendNANA
01:30
02:30 10.4 6.5 77 27 21   101.14     LegendNANA
03:30 10.1 6.5 78 26 23   101.16     LegendNANA
04:30 9.9 6.5 80 26 23   101.18     LegendNANA
05:30 9.4 6.2 80 24 25   101.24     LegendNANA
06:30 9.1 6.6 84 23 25   101.32     LegendNANA
07:30 10.1 7.2 82 24 24   101.36     LegendNANA
08:30 11.1 6.9 76 28 30   101.41     LegendNANA
09:30 12.0 7.8 75 29 26   101.47     LegendNANA
10:30 12.8 7.6 71 29 20   101.53     LegendNANA
11:30 13.3 7.2 66 28 19   101.56     LegendNANA
12:30 14.2 6.9 61 27 16   101.58     LegendNANA
13:30 14.2 7.6 64 1 17   101.62     LegendNANA
14:30 14.0 7.5 65 2 21   101.65     LegendNANA
15:30 13.6 6.2 61 1 16   101.70     LegendNANA
16:30 12.5 5.7 63 2 18   101.72     LegendNANA
17:30 11.4 6.3 71 3 15   101.80     LegendNANA
18:30 10.8 6.0 72 1 10   101.89     LegendNANA
19:30 9.4 6.3 81 17 3   101.96     LegendNANA
20:30 8.4 6.2 86 17 5   102.02     LegendNANA
21:30 8.1 6.3 89 22 5   102.07     LegendNANA
22:30 7.2 5.5 89 21 9   102.14     LegendNANA
23:30 7.5 5.8 89 21 11   102.19     LegendNANA

Notes on Data Quality.

Legend

  • E = Estimated
  • M = Missing
  • NA = Not Available
Date modified: